• în Republica Moldova
  • Lista ţărilor
  • Pe 7 zile
  • Temperatura apei
  • Hartă satelitară
  • Meteo pe hartă
  • Widget-uri
  • user-avatar
    Intrare

    Meteo pe oră la Nikolskoe

    Astăzi, 23 Octombrie, Marţi

    Timp Temperatura Precipitaţii Vânt Presiune Umiditate
    00:00 +1°C° 0 mm 4 m/s 739 mmHg 82%
    01:00 +1°C° 0 mm 4 m/s 738 mmHg 83%
    02:00 +2°C° 0 mm 3 m/s 737 mmHg 84%
    03:00 +1°C° 0 mm 4 m/s 737 mmHg 85%
    04:00 +1°C° 0 mm 4 m/s 736 mmHg 86%
    05:00 +1°C° 0 mm 4 m/s 735 mmHg 87%
    06:00 +1°C° 0.1 mm 4 m/s 735 mmHg 87%
    07:00 +3°C° 0.1 mm 3 m/s 735 mmHg 88%
    08:00 +3°C° 0 mm 3 m/s 735 mmHg 88%
    09:00 +4°C° 0.1 mm 3 m/s 734 mmHg 86%
    10:00 +4°C° 0.1 mm 3 m/s 734 mmHg 85%
    11:00 +6°C° 0.1 mm 2 m/s 734 mmHg 83%
    12:00 +6°C° 0 mm 2 m/s 733 mmHg 80%
    13:00 +7°C° 0 mm 2 m/s 733 mmHg 77%
    14:00 +7°C° 0 mm 2 m/s 732 mmHg 73%
    15:00 +7°C° 0 mm 2 m/s 732 mmHg 75%
    16:00 +6°C° 0 mm 2 m/s 731 mmHg 77%
    17:00 +5°C° 0 mm 2 m/s 731 mmHg 79%
    18:00 +5°C° 0 mm 2 m/s 730 mmHg 79%
    19:00 +5°C° 0 mm 2 m/s 730 mmHg 80%
    20:00 +5°C° 0 mm 2 m/s 729 mmHg 80%
    21:00 +4°C° 0 mm 2 m/s 728 mmHg 82%
    22:00 +4°C° 0 mm 2 m/s 728 mmHg 84%
    23:00 +3°C° 0 mm 3 m/s 727 mmHg 86%

    Mâine, 24 Octombrie, Miercuri

    Timp Temperatura Precipitaţii Vânt Presiune Umiditate
    00:00 +3°C° 0.3 mm 3 m/s 726 mmHg 86%
    01:00 +3°C° 0.3 mm 3 m/s 726 mmHg 86%
    02:00 +3°C° 0.3 mm 3 m/s 725 mmHg 87%
    03:00 +3°C° 0.3 mm 3 m/s 724 mmHg 85%
    04:00 +3°C° 0.3 mm 3 m/s 724 mmHg 83%
    05:00 +3°C° 0.3 mm 3 m/s 723 mmHg 81%
    06:00 +3°C° 0.1 mm 3 m/s 723 mmHg 81%
    07:00 +3°C° 0.1 mm 4 m/s 722 mmHg 81%
    08:00 +3°C° 0.1 mm 4 m/s 722 mmHg 81%
    09:00 +4°C° 0 mm 4 m/s 722 mmHg 79%
    10:00 +4°C° 0 mm 4 m/s 721 mmHg 77%
    11:00 +5°C° 0 mm 4 m/s 721 mmHg 75%
    12:00 +5°C° 0.1 mm 4 m/s 721 mmHg 76%
    13:00 +5°C° 0.1 mm 4 m/s 721 mmHg 77%
    14:00 +5°C° 0.1 mm 4 m/s 720 mmHg 79%
    15:00 +5°C° 0.2 mm 3 m/s 720 mmHg 81%
    16:00 +5°C° 0.2 mm 3 m/s 720 mmHg 84%
    17:00 +4°C° 0.2 mm 3 m/s 720 mmHg 87%
    18:00 +4°C° 0.4 mm 3 m/s 719 mmHg 88%
    19:00 +4°C° 0.4 mm 3 m/s 719 mmHg 89%
    20:00 +4°C° 0.4 mm 3 m/s 719 mmHg 91%
    21:00 +4°C° 1.1 mm 3 m/s 719 mmHg 91%
    22:00 +4°C° 1.1 mm 3 m/s 719 mmHg 92%
    23:00 +4°C° 1.1 mm 3 m/s 719 mmHg 92%

    Poimâine, 25 Octombrie, Joi

    Timp Temperatura Precipitaţii Vânt Presiune Umiditate
    00:00 +4°C° 0.3 mm 3 m/s 718 mmHg 93%
    01:00 +5°C° 0.3 mm 2 m/s 718 mmHg 93%
    02:00 +5°C° 0.3 mm 2 m/s 718 mmHg 94%
    03:00 +5°C° 0.1 mm 2 m/s 718 mmHg 95%
    04:00 +5°C° 0.1 mm 1 m/s 717 mmHg 95%
    05:00 +5°C° 0.1 mm 1 m/s 717 mmHg 96%
    06:00 +5°C° 0.5 mm 1 m/s 717 mmHg 96%
    07:00 +5°C° 0.5 mm 1 m/s 717 mmHg 95%
    08:00 +5°C° 0.5 mm 1 m/s 717 mmHg 94%
    09:00 +5°C° 0.7 mm 2 m/s 717 mmHg 91%
    10:00 +5°C° 0.7 mm 2 m/s 717 mmHg 89%
    11:00 +4°C° 0.7 mm 3 m/s 717 mmHg 86%
    12:00 +4°C° 0.8 mm 4 m/s 717 mmHg 85%
    13:00 +3°C° 0.8 mm 4 m/s 717 mmHg 84%
    14:00 +2°C° 0.8 mm 5 m/s 717 mmHg 83%
    15:00 +2°C° 0.5 mm 5 m/s 717 mmHg 81%
    16:00 +2°C° 0.5 mm 6 m/s 718 mmHg 80%
    17:00 +1°C° 0.5 mm 6 m/s 718 mmHg 78%
    18:00 +1°C° 0.1 mm 6 m/s 719 mmHg 78%
    19:00 +1°C° 0.1 mm 6 m/s 719 mmHg 77%
    20:00 -1°C° 0.1 mm 6 m/s 719 mmHg 77%
    21:00 -1°C° 0 mm 6 m/s 720 mmHg 76%
    22:00 -1°C° 0 mm 6 m/s 720 mmHg 75%
    23:00 -1°C° 0 mm 6 m/s 721 mmHg 74%

    26 Octombrie, Vineri

    Timp Temperatura Precipitaţii Vânt Presiune Umiditate
    00:00 -1°C° 0 mm 6 m/s 721 mmHg 75%
    01:00 -1°C° 0 mm 6 m/s 722 mmHg 76%
    02:00 -1°C° 0 mm 6 m/s 722 mmHg 77%
    03:00 -1°C° 0 mm 6 m/s 722 mmHg 77%
    04:00 -1°C° 0 mm 6 m/s 723 mmHg 77%
    05:00 -1°C° 0 mm 6 m/s 723 mmHg 78%
    06:00 -1°C° 0 mm 6 m/s 724 mmHg 78%
    07:00 -1°C° 0 mm 6 m/s 724 mmHg 78%
    08:00 -1°C° 0 mm 6 m/s 725 mmHg 78%
    09:00 -1°C° 0 mm 6 m/s 725 mmHg 76%
    10:00 -1°C° 0 mm 6 m/s 725 mmHg 74%
    11:00 -1°C° 0 mm 6 m/s 726 mmHg 72%
    12:00 +1°C° 0 mm 6 m/s 726 mmHg 72%
    13:00 +1°C° 0 mm 6 m/s 727 mmHg 71%
    14:00 +1°C° 0 mm 5 m/s 727 mmHg 71%
    15:00 +1°C° 0 mm 5 m/s 727 mmHg 73%
    16:00 +1°C° 0 mm 5 m/s 728 mmHg 74%
    17:00 +1°C° 0 mm 5 m/s 728 mmHg 76%
    18:00 +1°C° 0 mm 4 m/s 729 mmHg 77%
    19:00 0°C° 0 mm 4 m/s 729 mmHg 78%
    20:00 0°C° 0 mm 4 m/s 729 mmHg 79%
    21:00 0°C° 0 mm 4 m/s 729 mmHg 81%
    22:00 0°C° 0 mm 4 m/s 730 mmHg 82%
    23:00 -1°C° 0 mm 4 m/s 730 mmHg 84%

    27 Octombrie, Sâmbătă

    Timp Temperatura Precipitaţii Vânt Presiune Umiditate
    00:00 -1°C° 0 mm 4 m/s 730 mmHg 85%
    01:00 -1°C° 0 mm 4 m/s 731 mmHg 87%
    02:00 -1°C° 0 mm 4 m/s 731 mmHg 88%
    03:00 -1°C° 0 mm 4 m/s 731 mmHg 89%
    04:00 -2°C° 0 mm 4 m/s 731 mmHg 91%
    05:00 -2°C° 0 mm 4 m/s 731 mmHg 92%
    06:00 -2°C° 0 mm 4 m/s 731 mmHg 91%
    07:00 -1°C° 0 mm 4 m/s 731 mmHg 89%
    08:00 -1°C° 0 mm 4 m/s 731 mmHg 88%
    09:00 0°C° 0.3 mm 4 m/s 730 mmHg 85%
    10:00 0°C° 0.3 mm 5 m/s 730 mmHg 83%
    11:00 +1°C° 0.3 mm 5 m/s 729 mmHg 81%
    12:00 +1°C° 0.9 mm 5 m/s 728 mmHg 83%
    13:00 +2°C° 0.9 mm 5 m/s 727 mmHg 85%
    14:00 +2°C° 0.9 mm 5 m/s 726 mmHg 87%
    15:00 +3°C° 0.2 mm 5 m/s 726 mmHg 86%
    16:00 +3°C° 0.2 mm 5 m/s 726 mmHg 86%
    17:00 +3°C° 0.2 mm 5 m/s 726 mmHg 86%
    18:00 +3°C° 0.1 mm 5 m/s 726 mmHg 85%
    19:00 +2°C° 0.1 mm 5 m/s 726 mmHg 83%
    20:00 +2°C° 0.1 mm 5 m/s 727 mmHg 81%
    21:00 +2°C° 0 mm 5 m/s 727 mmHg 82%
    22:00 +1°C° 0 mm 5 m/s 727 mmHg 82%
    23:00 +1°C° 0 mm 5 m/s 727 mmHg 82%

    28 Octombrie, Duminică

    Timp Temperatura Precipitaţii Vânt Presiune Umiditate
    00:00 +1°C° 0.1 mm 5 m/s 728 mmHg 83%
    01:00 +1°C° 0.1 mm 4 m/s 728 mmHg 84%
    02:00 +1°C° 0.1 mm 4 m/s 729 mmHg 85%
    03:00 +1°C° 0 mm 4 m/s 730 mmHg 86%
    04:00 +1°C° 0 mm 5 m/s 730 mmHg 88%
    05:00 +1°C° 0 mm 5 m/s 731 mmHg 89%
    06:00 +1°C° 0 mm 5 m/s 733 mmHg 88%
    07:00 +1°C° 0 mm 5 m/s 734 mmHg 86%
    08:00 +1°C° 0 mm 5 m/s 735 mmHg 85%
    09:00 +1°C° 0.1 mm 4 m/s 736 mmHg 84%
    10:00 +3°C° 0.1 mm 4 m/s 737 mmHg 83%
    11:00 +3°C° 0.1 mm 4 m/s 738 mmHg 82%
    12:00 +3°C° 0.1 mm 4 m/s 739 mmHg 81%
    13:00 +3°C° 0.1 mm 4 m/s 740 mmHg 80%
    14:00 +3°C° 0.1 mm 4 m/s 741 mmHg 79%
    15:00 +2°C° 0 mm 3 m/s 742 mmHg 81%
    16:00 +2°C° 0 mm 3 m/s 742 mmHg 82%
    17:00 +2°C° 0 mm 3 m/s 743 mmHg 83%
    18:00 +2°C° 0 mm 2 m/s 744 mmHg 83%
    19:00 +2°C° 0 mm 2 m/s 744 mmHg 84%
    20:00 +2°C° 0 mm 2 m/s 745 mmHg 85%
    21:00 +1°C° 0 mm 2 m/s 745 mmHg 87%
    22:00 +1°C° 0 mm 2 m/s 745 mmHg 89%
    23:00 +1°C° 0 mm 2 m/s 746 mmHg 90%

    29 Octombrie, Luni

    Timp Temperatura Precipitaţii Vânt Presiune Umiditate
    00:00 -1°C° 0 mm 2 m/s 746 mmHg 91%
    01:00 +1°C° 0 mm 1 m/s 747 mmHg 91%
    02:00 +1°C° 0 mm 1 m/s 747 mmHg 92%
    03:00 +1°C° 0 mm 1 m/s 747 mmHg 91%
    04:00 +1°C° 0 mm 1 m/s 747 mmHg 90%
    05:00 0°C° 0 mm 0 m/s 747 mmHg 88%
    06:00 +1°C° 0 mm 1 m/s 748 mmHg 87%
    07:00 +2°C° 0 mm 1 m/s 748 mmHg 86%
    08:00 +2°C° 0 mm 1 m/s 748 mmHg 84%
    09:00 +2°C° 0.1 mm 1 m/s 748 mmHg 83%
    10:00 +3°C° 0.1 mm 1 m/s 748 mmHg 82%
    11:00 +3°C° 0.1 mm 1 m/s 749 mmHg 81%
    12:00 +3°C° 0.4 mm 1 m/s 748 mmHg 83%
    13:00 +2°C° 0.4 mm 2 m/s 748 mmHg 85%
    14:00 +2°C° 0.4 mm 2 m/s 748 mmHg 87%
    15:00 +2°C° 0.8 mm 2 m/s 748 mmHg 88%
    16:00 +1°C° 0.8 mm 3 m/s 748 mmHg 89%
    17:00 0°C° 0.8 mm 3 m/s 747 mmHg 91%
    18:00 -1°C° 0.6 mm 4 m/s 747 mmHg 91%
    19:00 -1°C° 0.6 mm 4 m/s 747 mmHg 91%
    20:00 -1°C° 0.6 mm 5 m/s 747 mmHg 91%
    21:00 -1°C° 0.6 mm 5 m/s 746 mmHg 92%
    22:00 -1°C° 0.6 mm 5 m/s 746 mmHg 92%
    23:00 -1°C° 0.6 mm 4 m/s 746 mmHg 93%
    Arată mai mult